Hourly Weather Orvault

Today, 13 August, Thursday

Time Temperature Precipitation Wind Pressure Humidity
00:00 +19°C° 0 mm 2 mps 755 mmHg 91%
01:00 +19°C° 0.2 mm 2 mps 755 mmHg 92%
02:00 +20°C° 0.2 mm 1 mps 755 mmHg 92%
03:00 +19°C° 0.2 mm 1 mps 754 mmHg 93%
04:00 +20°C° 0 mm 1 mps 754 mmHg 92%
05:00 +19°C° 0 mm 2 mps 754 mmHg 91%
06:00 +19°C° 0 mm 2 mps 754 mmHg 89%
07:00 +19°C° 0.6 mm 2 mps 754 mmHg 90%
08:00 +19°C° 0.6 mm 2 mps 754 mmHg 90%
09:00 +20°C° 0.6 mm 2 mps 754 mmHg 90%
10:00 +20°C° 1.2 mm 3 mps 755 mmHg 90%
11:00 +20°C° 1.2 mm 3 mps 755 mmHg 90%
12:00 +20°C° 1.2 mm 3 mps 755 mmHg 90%
13:00 +21°C° 1.1 mm 4 mps 755 mmHg 88%
14:00 +21°C° 1.1 mm 4 mps 755 mmHg 87%
15:00 +21°C° 1.1 mm 5 mps 755 mmHg 85%
16:00 +21°C° 0.2 mm 5 mps 755 mmHg 85%
17:00 +21°C° 0.2 mm 5 mps 755 mmHg 84%
18:00 +21°C° 0.2 mm 5 mps 755 mmHg 84%
19:00 +20°C° 0 mm 5 mps 756 mmHg 87%
20:00 +20°C° 0 mm 4 mps 756 mmHg 91%
21:00 +19°C° 0 mm 4 mps 757 mmHg 94%
22:00 +19°C° 0.1 mm 4 mps 757 mmHg 93%
23:00 +19°C° 0.1 mm 4 mps 757 mmHg 93%

Tomorrow, 14 August, Friday

Time Temperature Precipitation Wind Pressure Humidity
00:00 +19°C° 0.1 mm 4 mps 757 mmHg 92%
01:00 +19°C° 0 mm 4 mps 757 mmHg 92%
02:00 +19°C° 0 mm 4 mps 757 mmHg 91%
03:00 +19°C° 0 mm 4 mps 757 mmHg 91%
04:00 +19°C° 0 mm 3 mps 757 mmHg 90%
05:00 +19°C° 0 mm 3 mps 758 mmHg 89%
06:00 +19°C° 0 mm 3 mps 758 mmHg 88%
07:00 +19°C° 0 mm 3 mps 758 mmHg 85%
08:00 +20°C° 0 mm 3 mps 758 mmHg 82%
09:00 +20°C° 0 mm 4 mps 758 mmHg 79%
10:00 +21°C° 0 mm 4 mps 758 mmHg 74%
11:00 +22°C° 0 mm 4 mps 758 mmHg 69%
12:00 +25°C° 0 mm 4 mps 758 mmHg 63%
13:00 +25°C° 0 mm 4 mps 758 mmHg 62%
14:00 +25°C° 0 mm 4 mps 758 mmHg 62%
15:00 +25°C° 0 mm 4 mps 758 mmHg 61%
16:00 +25°C° 0 mm 4 mps 758 mmHg 64%
17:00 +23°C° 0 mm 4 mps 758 mmHg 68%
18:00 +22°C° 0 mm 4 mps 758 mmHg 72%
19:00 +21°C° 0 mm 3 mps 758 mmHg 79%
20:00 +19°C° 0 mm 3 mps 758 mmHg 86%
21:00 +18°C° 0 mm 2 mps 759 mmHg 93%
22:00 +17°C° 0 mm 2 mps 759 mmHg 92%
23:00 +17°C° 0 mm 2 mps 758 mmHg 92%

Day after tomorrow, 15 August, Saturday

Time Temperature Precipitation Wind Pressure Humidity
00:00 +17°C° 0 mm 2 mps 758 mmHg 92%
01:00 +16°C° 0 mm 2 mps 758 mmHg 91%
02:00 +16°C° 0 mm 2 mps 758 mmHg 91%
03:00 +16°C° 0 mm 2 mps 758 mmHg 90%
04:00 +16°C° 0 mm 2 mps 758 mmHg 89%
05:00 +16°C° 0 mm 2 mps 758 mmHg 88%
06:00 +16°C° 0 mm 2 mps 757 mmHg 86%
07:00 +18°C° 0 mm 3 mps 757 mmHg 78%
08:00 +21°C° 0 mm 3 mps 758 mmHg 70%
09:00 +24°C° 0 mm 3 mps 758 mmHg 61%
10:00 +25°C° 0 mm 3 mps 757 mmHg 57%
11:00 +26°C° 0 mm 3 mps 757 mmHg 52%
12:00 +27°C° 0 mm 2 mps 756 mmHg 48%
13:00 +28°C° 0 mm 2 mps 756 mmHg 46%
14:00 +28°C° 0 mm 2 mps 756 mmHg 43%
15:00 +29°C° 0 mm 2 mps 756 mmHg 41%
16:00 +28°C° 0.2 mm 2 mps 755 mmHg 47%
17:00 +27°C° 0.2 mm 2 mps 755 mmHg 53%
18:00 +26°C° 0.2 mm 2 mps 755 mmHg 59%
19:00 +24°C° 0.2 mm 2 mps 755 mmHg 65%
20:00 +21°C° 0.2 mm 2 mps 755 mmHg 71%
21:00 +19°C° 0.2 mm 3 mps 755 mmHg 77%
22:00 +19°C° 0.4 mm 2 mps 755 mmHg 80%
23:00 +18°C° 0.4 mm 2 mps 755 mmHg 83%

16 August, Sunday

Time Temperature Precipitation Wind Pressure Humidity
00:00 +18°C° 0.4 mm 2 mps 755 mmHg 86%
01:00 +17°C° 0.4 mm 2 mps 754 mmHg 87%
02:00 +17°C° 0.4 mm 2 mps 754 mmHg 88%
03:00 +17°C° 0.4 mm 2 mps 754 mmHg 89%
04:00 +18°C° 0.6 mm 1 mps 754 mmHg 90%
05:00 +18°C° 0.6 mm 1 mps 754 mmHg 91%
06:00 +18°C° 0.6 mm 1 mps 754 mmHg 93%
07:00 +18°C° 0 mm 2 mps 754 mmHg 86%
08:00 +20°C° 0 mm 3 mps 754 mmHg 80%
09:00 +22°C° 0 mm 4 mps 755 mmHg 73%
10:00 +23°C° 0 mm 4 mps 755 mmHg 67%
11:00 +25°C° 0 mm 5 mps 755 mmHg 60%
12:00 +26°C° 0 mm 5 mps 755 mmHg 54%
13:00 +26°C° 0 mm 5 mps 755 mmHg 55%
14:00 +26°C° 0 mm 6 mps 755 mmHg 56%
15:00 +24°C° 0 mm 6 mps 755 mmHg 57%
16:00 +23°C° 0 mm 5 mps 755 mmHg 61%
17:00 +23°C° 0 mm 5 mps 755 mmHg 66%
18:00 +22°C° 0 mm 4 mps 755 mmHg 70%
19:00 +21°C° 0 mm 4 mps 755 mmHg 76%
20:00 +20°C° 0 mm 3 mps 755 mmHg 82%
21:00 +19°C° 0 mm 3 mps 755 mmHg 88%
22:00 +18°C° 0.1 mm 3 mps 755 mmHg 89%
23:00 +18°C° 0.1 mm 3 mps 755 mmHg 90%

17 August, Monday

Time Temperature Precipitation Wind Pressure Humidity
00:00 +18°C° 0.1 mm 3 mps 755 mmHg 91%
01:00 +18°C° 0.4 mm 3 mps 755 mmHg 92%
02:00 +17°C° 0.4 mm 3 mps 754 mmHg 92%
03:00 +17°C° 0.4 mm 3 mps 754 mmHg 93%
04:00 +17°C° 0.1 mm 3 mps 754 mmHg 93%
05:00 +17°C° 0.1 mm 3 mps 754 mmHg 92%
06:00 +17°C° 0.1 mm 3 mps 754 mmHg 92%
07:00 +19°C° 0.3 mm 3 mps 754 mmHg 85%
08:00 +20°C° 0.3 mm 4 mps 754 mmHg 79%
09:00 +22°C° 0.3 mm 5 mps 755 mmHg 73%
10:00 +22°C° 0.5 mm 5 mps 755 mmHg 70%
11:00 +23°C° 0.5 mm 6 mps 755 mmHg 68%
12:00 +23°C° 0.5 mm 6 mps 755 mmHg 66%
13:00 +23°C° 0.1 mm 7 mps 755 mmHg 62%
14:00 +24°C° 0.1 mm 7 mps 755 mmHg 59%
15:00 +24°C° 0.1 mm 8 mps 755 mmHg 56%
16:00 +23°C° 0.1 mm 7 mps 755 mmHg 58%
17:00 +22°C° 0.1 mm 6 mps 756 mmHg 60%
18:00 +22°C° 0.1 mm 6 mps 756 mmHg 62%
19:00 +20°C° 0 mm 5 mps 756 mmHg 69%
20:00 +19°C° 0 mm 4 mps 757 mmHg 77%
21:00 +17°C° 0 mm 3 mps 757 mmHg 84%
22:00 +17°C° 0 mm 3 mps 757 mmHg 87%
23:00 +17°C° 0 mm 3 mps 758 mmHg 90%

18 August, Tuesday

Time Temperature Precipitation Wind Pressure Humidity
00:00 +16°C° 0 mm 3 mps 758 mmHg 93%
01:00 +16°C° 0 mm 3 mps 758 mmHg 93%
02:00 +16°C° 0 mm 2 mps 757 mmHg 93%
03:00 +16°C° 0 mm 2 mps 757 mmHg 94%
04:00 +16°C° 0 mm 2 mps 757 mmHg 94%
05:00 +16°C° 0 mm 2 mps 758 mmHg 94%
06:00 +16°C° 0 mm 2 mps 758 mmHg 93%
07:00 +18°C° 0 mm 3 mps 758 mmHg 85%
08:00 +20°C° 0 mm 3 mps 758 mmHg 76%
09:00 +22°C° 0 mm 4 mps 759 mmHg 68%
10:00 +22°C° 0.1 mm 4 mps 759 mmHg 65%
11:00 +23°C° 0.1 mm 4 mps 759 mmHg 62%
12:00 +25°C° 0.1 mm 4 mps 758 mmHg 59%
13:00 +25°C° 0 mm 4 mps 758 mmHg 59%
14:00 +25°C° 0 mm 4 mps 758 mmHg 59%
15:00 +25°C° 0 mm 4 mps 758 mmHg 59%
16:00 +23°C° 0 mm 4 mps 758 mmHg 63%
17:00 +23°C° 0 mm 4 mps 759 mmHg 67%
18:00 +22°C° 0 mm 3 mps 759 mmHg 72%
19:00 +20°C° 0 mm 3 mps 759 mmHg 78%
20:00 +19°C° 0 mm 3 mps 759 mmHg 85%
21:00 +17°C° 0 mm 2 mps 760 mmHg 92%
22:00 +17°C° 0 mm 2 mps 760 mmHg 92%
23:00 +17°C° 0 mm 2 mps 760 mmHg 92%
Show more